Location: *
(46.1006°N, 1.8394°E)
Time: 16:58:44
(UTC+00:00)

H-2A R/B - Pass Details

Date: 20 September 2019
Orbit: 734 x 836 km, 98.3° (Epoch: 19 October)

Event Time Altitude Azimuth Distance (km) Brightness Sun altitude
Exits shadow 19:42:42 26° 157° (SSE) 1,451 3.0 -19.0°
Maximum altitude 19:45:34 79° 74° (ENE) 768 1.8 -19.5°
Drops below altitude 10° 19:50:38 10° 349° (NNW) 2,305 4.9 -20.3°
Sets 19:52:59 0° 348° (NNW) 3,250 5.8 -20.6°
